[[{"header":{"parameterUnit":"m.s-1","parameterCategory":1,"la1":30.2991,"la2":30.254,"lo1":-89.0895,"lo2":-89.0444,"dx":0.0017,"dy":0.0017,"nx":28,"ny":28,"refTime":"2022-11-05T21:00:00:Z","depth":0,"parameterNumber":2,"parameterNumberName":"U-component_of_WINDS"},"data":[0,0,0,0,0,0,0,0,0,0,0,0,0,0,0,0,0,0,0,0,0,0,0,0,0,0,0,0,0,0,0,0,0,0,0,0,0,0,0,0,0,0,0,0,0,0,0,0,0,0,0,0,0,0,0,0,0,0,-2.7068,-2.7067,0,-2.7006,-2.7005,-2.7004,-2.6918,-2.6916,-2.6915,-2.6913,-2.6849,-2.6849,-2.6849,0,0,0,0,0,0,0,0,0,0,0,0,0,-2.7113,-2.7113,-2.7068,-2.7067,-2.7066,-2.7006,-2.7005,-2.7004,-2.6918,-2.6916,-2.6914,-2.6913,-2.6849,-2.6849,-2.6849,0,0,0,0,0,0,0,0,0,0,0,0,0,-2.7077,-2.7113,-2.7068,-2.7016,-2.7011,-2.7006,-2.7005,-2.7004,-2.6918,-2.6916,-2.6914,-2.6912,-2.685,-2.6849,-2.6849,-2.689,0,0,-2.6847,-2.6847,0,0,0,0,0,0,0,0,-2.7079,-2.7075,-2.7025,-2.702,-2.7014,-2.6967,-2.6998,-2.6966,-2.6919,-2.6953,-2.6913,-2.6911,-2.689,-2.6886,-2.688,-2.6887,-2.6884,-2.6847,-2.6847,-2.6847,-2.6846,0,0,0,0,0,0,0,-2.7082,-2.7077,-2.7043,-2.7024,-2.7017,-2.6996,-2.6989,-2.6991,-2.6935,-2.695,-2.6944,-2.6938,-2.6887,-2.688,-2.6877,-2.6883,-2.6847,-2.6847,-2.6846,-2.6846,-2.6924,-2.6926,0,0,0,0,0,0,-2.7092,-2.708,-2.7045,-2.7041,-2.7042,-2.6997,-2.6989,-2.6984,-2.6935,-2.6925,-2.694,-2.6934,-2.6882,-2.6878,-2.6875,-2.6921,-2.6847,-2.6846,-2.6846,-2.6921,-2.6924,-2.6927,0,0,0,0,0,0,-2.7093,-2.709,-2.7048,-2.7059,-2.7052,-2.6999,-2.6995,-2.6984,-2.6977,-2.6927,-2.6916,-2.6943,-2.688,-2.6876,-2.6887,-2.6917,-2.6846,-2.6845,-2.6919,-2.6922,-2.6926,-2.7013,0,0,0,0,0,0,-2.7095,-2.7091,-2.7105,-2.706,-2.7052,-2.7061,-2.6997,-2.6985,-2.6977,-2.6969,-2.6927,-2.6918,-2.6878,-2.6889,-2.6887,-2.6915,-2.6845,-2.6916,-2.692,-2.6924,-2.7007,-2.7019,-2.7029,0,0,0,0,0,-2.7097,-2.7131,-2.7106,-2.7102,-2.7069,-2.7063,-2.7058,-2.7012,-2.698,-2.6994,-2.6962,-2.6919,-2.6915,-2.689,-2.6888,-2.6917,-2.6913,-2.6919,-2.6924,-2.7002,-2.7017,-2.7029,0,0,0,0,0,0,-2.718,-2.7124,-2.7096,-2.7117,-2.7096,-2.7048,-2.7065,-2.7028,-2.7015,-2.7008,-2.6951,-2.6942,-2.6962,-2.694,-2.6914,-2.6955,-2.6908,-2.6913,-2.6968,-2.6982,-2.6993,-2.6997,-2.6845,0,0,0,0,0,-2.7201,-2.7201,-2.7152,-2.7176,-2.7166,-2.7118,-2.7114,-2.708,-2.7055,-2.7046,-2.7014,-2.6992,-2.6986,-2.6983,-2.6974,-2.7004,-2.6995,-2.7023,-2.7034,-2.7044,-2.7049,-2.7065,-2.7078,-2.6944,-2.6944,-2.6944,0,0,-2.7244,-2.7214,-2.7217,-2.7192,-2.7171,-2.7173,-2.7111,-2.7114,-2.7115,-2.7046,-2.7055,-2.7032,-2.7004,-2.7026,-2.7034,-2.7009,-2.7084,-2.7051,-2.7058,-2.7058,-2.7072,-2.7085,-2.7096,-2.6948,-2.6947,-2.6947,0,0,-2.7323,-2.73,-2.7317,-2.7299,-2.7269,-2.7237,-2.7242,-2.7201,-2.7183,-2.7192,-2.7141,-2.7142,-2.7132,-2.7114,-2.7104,-2.7181,-2.7142,-2.718,-2.7237,-2.7254,-2.7265,-2.7274,-2.7302,-2.7313,-2.7185,-2.7185,-2.7185,0,-2.738,-2.738,-2.7331,-2.7339,-2.733,-2.7269,-2.7288,-2.7272,-2.7241,-2.7237,-2.7209,-2.7197,-2.7174,-2.7192,-2.7211,-2.7205,-2.7209,-2.7183,-2.7267,-2.7276,-2.7283,-2.731,-2.7321,-2.719,-2.719,-2.7189,-2.7189,0,-2.7452,-2.7453,-2.7471,-2.7444,-2.7437,-2.745,-2.7405,-2.7404,-2.7373,-2.7344,-2.7355,-2.7326,-2.7311,-2.7313,-2.7281,-2.7328,-2.7313,-2.7278,-2.7228,-2.7302,-2.7326,-2.7335,-2.7197,-2.7195,-2.7194,-2.7193,0,0,-2.7578,-2.7527,-2.7534,-2.7522,-2.7487,-2.7487,-2.7499,-2.7485,-2.7486,-2.7468,-2.7477,-2.7471,-2.7439,-2.7428,-2.7394,-2.7409,-2.7474,-2.7372,-2.737,-2.7392,-2.7525,-2.7552,-2.7564,-2.7449,-2.745,-2.7452,-2.7527,0,-2.765,-2.7666,-2.7625,-2.7651,-2.7653,-2.7597,-2.7607,-2.7588,-2.7562,-2.7561,-2.7532,-2.753,-2.7487,-2.748,-2.7493,-2.7464,-2.75,-2.7457,-2.7457,-2.7457,-2.7465,-2.7576,-2.7604,-2.7677,-2.7536,-2.7538,-2.7539,0,-2.7735,-2.7723,-2.775,-2.7716,-2.7715,-2.7725,-2.7711,-2.7709,-2.7687,-2.7667,-2.7657,-2.7619,-2.7629,-2.7583,-2.7597,-2.757,-2.7567,-2.7553,-2.7555,-2.7552,-2.7502,-2.7577,-2.7699,-2.771,-2.7553,-2.7552,-2.7551,0,-2.7826,-2.7816,-2.7832,-2.7823,-2.7783,-2.7792,-2.7776,-2.7751,-2.7746,-2.7734,-2.7731,-2.7721,-2.7715,-2.7708,-2.7668,-2.7639,-2.7688,-2.7638,-2.7673,-2.7674,-2.7684,-2.7684,-2.7808,-2.7684,-2.7684,-2.7684,-2.7683,0,-2.791,-2.7929,-2.7872,-2.7882,-2.7902,-2.7855,-2.7877,-2.7855,-2.7835,-2.784,-2.7791,-2.7797,-2.7745,-2.7746,-2.7716,-2.7733,-2.773,-2.7716,-2.7707,-2.772,-2.7722,-2.7717,-2.7711,-2.7686,-2.7686,-2.7685,-2.7685,0,-2.8013,-2.7976,-2.7989,-2.7952,-2.7943,-2.796,-2.7928,-2.7936,-2.7909,-2.7917,-2.7916,-2.7873,-2.7872,-2.7833,-2.7823,-2.7803,-2.7833,-2.7815,-2.7841,-2.7835,-2.7872,-2.7869,-2.7996,-2.801,-2.7878,-2.7879,-2.788,0,-2.8069,-2.8083,-2.8047,-2.8048,-2.8034,-2.8035,-2.8031,-2.7987,-2.7985,-2.7962,-2.7973,-2.7968,-2.7962,-2.7963,-2.7932,-2.7925,-2.7907,-2.7952,-2.7905,-2.7918,-2.7908,-2.7908,-2.791,-2.7961,-2.7963,-2.7964,-2.7966,0,-2.8172,-2.8154,-2.815,-2.8141,-2.8137,-2.8128,-2.8115,-2.8118,-2.8069,-2.807,-2.8069,-2.8064,-2.8056,-2.8052,-2.804,-2.8024,-2.7988,-2.7981,-2.7989,-2.8001,-2.8016,-2.8009,-2.7867,-2.7978,-2.7976,-2.7976,-2.7975,-2.7974,-2.8253,-2.8264,-2.8241,-2.8239,-2.8226,-2.8216,-2.8222,-2.8197,-2.8195,-2.8185,-2.816,-2.8163,-2.8143,-2.8123,-2.8111,-2.8114,-2.8091,-2.8102,-2.8105,-2.8109,-2.8116,-2.8016,-2.8112,-2.8111,-2.8111,-2.8111,-2.811,0,-2.8354,-2.8338,-2.8337,-2.8322,-2.8321,-2.8288,-2.8273,-2.8274,-2.8278,-2.8263,-2.8258,-2.8258,-2.8256,-2.8226,-2.822,-2.8228,-2.8212,-2.8228,-2.8227,-2.8224,-2.8136,-2.813,-2.8242,-2.8242,-2.8242,-2.8242,-2.8242,-2.8242,-2.8407,-2.8423,-2.8403,-2.8414,-2.8397,-2.8401,-2.8395,-2.8387,-2.8374,-2.8377,-2.8375,-2.8356,-2.8335,-2.8328,-2.8325,-2.8316,-2.8316,-2.8339,-2.8325,-2.8243,-2.823,-2.8218,-2.8212,-2.8339,-2.8339,-2.8412,-2.8413,-2.8414]},{"header":{"parameterUnit":"m.s-1","parameterCategory":1,"la1":30.2991,"la2":30.254,"lo1":-89.0895,"lo2":-89.0444,"dx":0.0017,"dy":0.0017,"nx":28,"ny":28,"refTime":"2022-11-05T21:00:00:Z","depth":0,"parameterNumber":3,"parameterNumberName":"V-component_of_WINDS"},"data":[0,0,0,0,0,0,0,0,0,0,0,0,0,0,0,0,0,0,0,0,0,0,0,0,0,0,0,0,0,0,0,0,0,0,0,0,0,0,0,0,0,0,0,0,0,0,0,0,0,0,0,0,0,0,0,0,0,0,0.7941,0.7941,0,0.7915,0.7914,0.7914,0.7959,0.796,0.7962,0.7963,0.7929,0.7927,0.7925,0,0,0,0,0,0,0,0,0,0,0,0,0,0.8027,0.8025,0.7941,0.7941,0.7941,0.7915,0.7914,0.7914,0.7958,0.796,0.7962,0.7964,0.793,0.7927,0.7925,0,0,0,0,0,0,0,0,0,0,0,0,0,0.7993,0.8024,0.7941,0.796,0.7961,0.7915,0.7914,0.7914,0.7958,0.796,0.7963,0.7965,0.7931,0.7928,0.7924,0.7856,0,0,0.7913,0.7912,0,0,0,0,0,0,0,0,0.7995,0.799,0.7958,0.7959,0.796,0.7943,0.7932,0.7894,0.7957,0.7959,0.7963,0.7966,0.7931,0.7928,0.7918,0.7855,0.7853,0.7913,0.7911,0.791,0.7909,0,0,0,0,0,0,0,0.7998,0.7992,0.7931,0.7957,0.7959,0.7968,0.7966,0.7925,0.7932,0.7959,0.7962,0.7959,0.7933,0.7921,0.7917,0.7853,0.7913,0.791,0.7908,0.7907,0.7733,0.7731,0,0,0,0,0,0,0.7998,0.7993,0.7931,0.793,0.7984,0.7965,0.7962,0.7946,0.7933,0.7933,0.7957,0.7961,0.7926,0.7921,0.7916,0.7836,0.791,0.7906,0.7904,0.7735,0.7732,0.773,0,0,0,0,0,0,0.8,0.7992,0.7933,0.7962,0.7956,0.7961,0.7942,0.7944,0.7933,0.7932,0.7932,0.7944,0.7928,0.7921,0.7871,0.7835,0.7905,0.7902,0.7738,0.7735,0.7731,0.7674,0,0,0,0,0,0,0.8002,0.7993,0.7968,0.7962,0.7954,0.7889,0.794,0.7942,0.7927,0.7932,0.792,0.792,0.7929,0.7876,0.7868,0.7831,0.7899,0.7742,0.7737,0.7732,0.7679,0.7668,0.766,0,0,0,0,0,0.8005,0.7951,0.7966,0.7958,0.7923,0.7887,0.7882,0.7896,0.7924,0.7898,0.7898,0.792,0.7841,0.7871,0.7862,0.7824,0.7744,0.7738,0.7733,0.7683,0.7671,0.766,0,0,0,0,0,0,0.795,0.7951,0.7967,0.791,0.7899,0.7895,0.7862,0.7882,0.786,0.7866,0.7882,0.7878,0.7825,0.782,0.7853,0.7758,0.7797,0.7789,0.7762,0.775,0.7741,0.7742,0.7896,0,0,0,0,0,0.7932,0.7904,0.7906,0.7855,0.7849,0.7857,0.7841,0.7853,0.7841,0.7835,0.7831,0.7817,0.7789,0.777,0.7744,0.768,0.7677,0.7649,0.7639,0.7631,0.7623,0.7589,0.7576,0.7711,0.7711,0.7711,0,0,0.7892,0.7889,0.787,0.7844,0.7836,0.7806,0.7852,0.7817,0.7794,0.7829,0.7782,0.7779,0.7764,0.7707,0.7681,0.7701,0.7586,0.7624,0.7618,0.7614,0.7582,0.7569,0.7557,0.7707,0.7708,0.7709,0,0,0.7805,0.7801,0.7758,0.7751,0.774,0.7746,0.7736,0.773,0.7729,0.7683,0.7709,0.7682,0.7633,0.7622,0.7609,0.7521,0.754,0.7512,0.746,0.7426,0.7416,0.7406,0.7373,0.7361,0.7505,0.7505,0.7504,0,0.7757,0.7714,0.7733,0.7698,0.7685,0.7719,0.7675,0.7666,0.7646,0.7635,0.7659,0.76,0.7592,0.7532,0.7511,0.75,0.7488,0.7512,0.7416,0.7407,0.7398,0.7367,0.7355,0.7501,0.7501,0.7502,0.7502,0,0.7654,0.7624,0.7591,0.7574,0.7558,0.7518,0.753,0.7511,0.7525,0.7529,0.7481,0.7474,0.7447,0.7435,0.7447,0.7377,0.7389,0.7414,0.7453,0.7382,0.7352,0.7341,0.7496,0.7497,0.7498,0.7499,0,0,0.7528,0.7525,0.7512,0.7505,0.7497,0.7473,0.7435,0.7412,0.7394,0.738,0.7348,0.7308,0.7331,0.7317,0.7329,0.7299,0.7228,0.7328,0.7328,0.7308,0.7149,0.7129,0.7115,0.7243,0.724,0.7239,0.715,0,0.744,0.7377,0.7395,0.733,0.7302,0.7335,0.7302,0.7293,0.7295,0.7271,0.7274,0.7244,0.7278,0.727,0.7243,0.7243,0.7196,0.725,0.721,0.7208,0.7211,0.71,0.7078,0.6995,0.7139,0.7137,0.7136,0,0.7329,0.7313,0.7247,0.7244,0.7233,0.7203,0.7184,0.7161,0.7151,0.7155,0.7141,0.7159,0.712,0.7163,0.7109,0.7145,0.713,0.7128,0.7125,0.7119,0.7166,0.709,0.6969,0.6956,0.7118,0.712,0.7121,0,0.7242,0.7204,0.716,0.7153,0.7149,0.7127,0.7124,0.7117,0.7102,0.7085,0.7075,0.7053,0.704,0.7022,0.7033,0.7063,0.6977,0.702,0.6977,0.6977,0.6955,0.6956,0.6828,0.6949,0.6949,0.6949,0.695,0,0.714,0.7098,0.7121,0.7093,0.7046,0.7067,0.702,0.7021,0.7014,0.6986,0.7014,0.6986,0.7004,0.6978,0.6987,0.694,0.6934,0.6935,0.6938,0.6932,0.6931,0.692,0.6925,0.6946,0.6947,0.6948,0.6948,0,0.7034,0.7047,0.7001,0.7003,0.7002,0.6968,0.6968,0.6942,0.6949,0.6913,0.6906,0.6914,0.6885,0.6896,0.6864,0.687,0.681,0.6821,0.6814,0.6816,0.6772,0.6775,0.6631,0.6612,0.6747,0.6746,0.6745,0,0.6967,0.6936,0.6935,0.692,0.6916,0.689,0.6876,0.6896,0.688,0.6867,0.6842,0.6816,0.6796,0.6748,0.675,0.6726,0.6735,0.6687,0.6731,0.6727,0.6733,0.6733,0.673,0.6676,0.6675,0.6674,0.6673,0,0.6847,0.6856,0.6836,0.6818,0.6801,0.6788,0.6776,0.6762,0.6781,0.6762,0.6734,0.6718,0.6688,0.6661,0.664,0.6635,0.6656,0.6659,0.6648,0.664,0.6636,0.6636,0.6787,0.6661,0.6662,0.6663,0.6664,0.6664,0.6757,0.6731,0.6727,0.6704,0.6698,0.6687,0.6663,0.6668,0.6646,0.6624,0.6637,0.6604,0.6595,0.657,0.6562,0.6536,0.6555,0.6538,0.6534,0.6529,0.6522,0.6643,0.6532,0.6533,0.6533,0.6533,0.6533,0,0.6637,0.6637,0.6616,0.6601,0.6582,0.6608,0.6597,0.6579,0.6551,0.6542,0.6523,0.6491,0.6466,0.6468,0.6444,0.6422,0.6431,0.6415,0.6416,0.6414,0.6508,0.6519,0.6408,0.6408,0.6408,0.6408,0.6408,0.6408,0.6572,0.653,0.6538,0.6493,0.6493,0.6463,0.6454,0.6444,0.6438,0.6402,0.6382,0.6384,0.638,0.6357,0.6334,0.6335,0.6324,0.6304,0.6308,0.6395,0.6407,0.6419,0.643,0.6302,0.6302,0.6217,0.6216,0.6215]}]]